FLOCK 3K-12 (43903 NORAD) Tracking and Keplerian Element Data

This shows tracking and keplerian element data for the satellite.

Feedback or suggestion? Click here.




ElementValue
Catalog43903
NameFLOCK 3K-12
Epoch Orbit331
Epoch Day17.8199158
Epoch Year2019
RAAN287.1331
Inclination97.2995
Eccentricity0.0022904
Argument of Perigee164.3153
Mean Anonmoly195.8799
Mean Motion15.23705607
Decay Rate2.579E-05
L11 43903U 18111AD 19017.81991580 .00002579 00000-0 10960-3 0 9992
L22 43903 97.2995 287.1331 0022904 164.3153 195.8799 15.23705607 3318

Live tracking and technical data element details for FLOCK 3K-12 (NORAD 43903). FLOCK 3K-12 can be tracked NOW for your location showing map with azimuth and elevation plus other details from your city location.

Track the satellite on the map from your city or location and see movement details for azimuth, elevation, latitude, longitude, range, height, and movement on the map or in text.







IsCatalogInMostPopularTable: catalog: 43903, numindb: 18
Update: records affected: 1



GetName: 43903 FLOCK 3K-12

Hit Count: updated at: Fri, 18 Jan 2019 21:36:52 GMT